Date String (YYYY-MM-DD hh:mm:ss) UTC,Instrument flags,absolute air pressure of the measurement (hPa),sample flow rate (lpm),inlet stack bypass flow (lpm),air temperature of the measurement (°C),ambient temperature measured by the external sensor (°C),aerosol sample conditioner tube jacket temperature (°C),OPC LED temperature (°C),internal box temperature (°C),relative humidity of the measurement (%),span deviation,mass concentration of particles derived from Lorenz-Mie calculation of OPC scattering (μg/m³),mass concentration of particles derived from Lorenz-Mie calculation of OPC scattering (μg/m³),mass concentration of particles derived from Lorenz-Mie calculation of OPC scattering (μg/m³)
DateTimeUTC,F1_M11,P_M11,Q1_M11,Q2_M11,T1_M11,T2_M11,T3_M11,T4_M11,T5_M11,U1_M11,ZSPAN_M11,X0_M11,X2_M11,X1_M11
2024-01-22 17:00:00,SystemResetWarning,0824.8,5.01,000.00,021.6,021.0,000.0,029.8,023.1,17.5,0003.9,0008.56,0005.09,0004.86
2024-01-22 17:01:00,SystemResetWarning,0824.7,5.01,000.00,021.6,021.0,000.0,029.8,023.2,17.5,0004.0,0008.26,0005.09,0004.85
2024-01-22 17:02:00,SystemResetWarning,0824.7,4.99,000.00,021.6,021.0,000.0,029.8,023.2,17.6,0004.2,0008.23,0005.08,0004.84
2024-01-22 17:03:00,SystemResetWarning,0824.7,4.99,000.00,021.6,021.1,000.0,029.8,023.2,17.6,0004.2,0008.22,0005.09,0004.85
2024-01-22 17:04:00,SystemResetWarning,0824.7,5.00,000.00,021.7,021.1,000.0,029.9,023.2,17.6,0004.3,0008.16,0005.09,0004.87
2024-01-22 17:05:00,SystemResetWarning,0824.8,5.00,000.00,021.7,021.1,000.0,029.9,023.2,17.8,0004.5,0008.09,0005.09,0004.91
2024-01-22 17:06:00,SystemResetWarning,0824.7,4.99,000.00,021.7,021.1,000.0,029.9,023.2,17.6,0004.6,0008.04,0005.07,0004.90
2024-01-22 17:07:00,SystemResetWarning,0824.7,5.00,000.00,021.7,021.2,000.0,029.9,023.3,17.6,0004.6,0008.05,0005.09,0004.91
2024-01-22 17:08:00,SystemResetWarning,0824.7,5.01,000.00,021.7,021.2,000.0,029.9,023.3,17.5,0004.6,0008.06,0005.09,0004.92
2024-01-22 17:09:00,SystemResetWarning,0824.7,5.00,000.00,021.8,021.2,000.0,029.9,023.3,17.5,0004.6,0008.01,0005.11,0004.94
2024-01-22 17:10:00,SystemResetWarning,0824.8,4.99,000.00,021.8,021.2,000.0,029.9,023.3,17.5,0004.5,0008.04,0005.13,0004.96
2024-01-22 17:11:00,SystemResetWarning,0824.8,5.00,000.00,021.8,021.2,000.0,030.0,023.4,17.6,0004.4,0008.04,0005.13,0004.96
2024-01-22 17:12:00,SystemResetWarning,0824.8,5.00,000.00,021.8,021.2,000.0,030.0,023.4,17.6,0004.4,0008.03,0005.12,0004.96
2024-01-22 17:13:00,SystemResetWarning,0824.8,5.00,000.00,021.8,021.3,000.0,030.0,023.4,17.5,0004.1,0008.03,0005.11,0004.95
2024-01-22 17:14:00,SystemResetWarning,0824.8,5.00,000.00,021.9,021.3,000.0,030.0,023.4,17.6,0004.0,0007.99,0005.07,0004.90
2024-01-22 17:15:00,SystemResetWarning,0824.8,5.01,000.00,021.9,021.3,000.0,030.0,023.4,17.3,0004.0,0007.94,0005.02,0004.86
2024-01-22 17:16:00,SystemResetWarning,0824.8,5.00,000.00,021.9,021.3,000.0,030.1,023.5,17.4,0003.7,0008.52,0004.98,0004.82
2024-01-22 17:17:00,SystemResetWarning,0824.8,5.01,000.00,021.9,021.3,000.0,030.1,023.5,17.4,0003.8,0008.61,0004.95,0004.80
2024-01-22 17:18:00,SystemResetWarning,0824.8,5.00,000.00,021.9,021.4,000.0,030.1,023.5,17.3,0003.8,0008.57,0004.91,0004.77
2024-01-22 17:19:00,SystemResetWarning,0824.8,5.00,000.00,022.0,021.4,000.0,030.1,023.5,17.4,0003.8,0008.67,0004.87,0004.73
2024-01-22 17:20:00,SystemResetWarning,0824.7,4.99,000.00,022.0,021.4,000.0,030.1,023.5,17.4,0003.7,0008.67,0004.84,0004.69
2024-01-22 17:21:00,SystemResetWarning,0824.8,4.99,000.00,022.0,021.4,000.0,030.1,023.6,17.3,0003.9,0008.63,0004.80,0004.66
2024-01-22 17:22:00,SystemResetWarning,0824.7,4.99,000.00,022.0,021.5,000.0,030.2,023.6,17.3,0004.0,0008.58,0004.76,0004.63
2024-01-22 17:23:00,SystemResetWarning,0824.8,5.00,000.00,022.0,021.5,000.0,030.2,023.6,17.4,0004.1,0008.57,0004.75,0004.61
2024-01-22 17:24:00,SystemResetWarning,0824.8,5.00,000.00,022.1,021.5,000.0,030.2,023.6,17.3,0004.2,0008.52,0004.72,0004.58
2024-01-22 17:25:00,SystemResetWarning,0824.8,5.01,000.00,022.1,021.5,000.0,030.2,023.6,17.1,0004.5,0008.44,0004.68,0004.55
2024-01-22 17:26:00,SystemResetWarning,0824.8,5.01,000.00,022.1,021.5,000.0,030.2,023.7,17.3,0004.6,0008.46,0004.66,0004.52
2024-01-22 17:27:00,SystemResetWarning,0824.7,5.01,000.00,022.1,021.6,000.0,030.3,023.7,17.2,0004.6,0008.19,0004.67,0004.51
2024-01-22 17:28:00,SystemResetWarning,0824.8,5.00,000.00,022.1,021.6,000.0,030.3,023.7,17.1,0004.5,0007.80,0004.65,0004.49
2024-01-22 17:29:00,SystemResetWarning,0824.8,5.00,000.00,022.1,021.6,000.0,030.3,023.7,17.0,0004.4,0007.87,0004.66,0004.48
2024-01-22 17:30:00,SystemResetWarning,0824.8,4.99,000.00,022.2,021.6,000.0,030.3,023.7,17.2,0004.3,0007.76,0004.66,0004.48
2024-01-22 17:31:00,SystemResetWarning,0824.8,5.00,000.00,022.2,021.6,000.0,030.3,023.8,17.2,0004.3,0007.68,0004.64,0004.46
2024-01-22 17:32:00,SystemResetWarning,0824.8,5.00,000.00,022.2,021.7,000.0,030.4,023.8,17.2,0004.1,0007.98,0004.61,0004.43
2024-01-22 17:33:00,SystemResetWarning,0824.8,5.00,000.00,022.2,021.7,000.0,030.4,023.8,17.4,0004.0,0008.77,0004.58,0004.40
2024-01-22 17:34:00,SystemResetWarning,0824.8,4.99,000.00,022.3,021.7,000.0,030.4,023.8,17.2,0003.9,0008.91,0004.55,0004.37
2024-01-22 17:35:00,SystemResetWarning,0824.8,5.00,000.00,022.3,021.7,000.0,030.4,023.9,17.0,0003.7,0008.91,0004.54,0004.34
2024-01-22 17:36:00,SystemResetWarning,0824.8,5.01,000.00,022.3,021.7,000.0,030.4,023.9,17.0,0003.6,0009.09,0004.59,0004.35
2024-01-22 17:37:00,SystemResetWarning,0824.9,5.01,000.00,022.3,021.8,000.0,030.5,023.9,17.1,0003.4,0009.07,0004.56,0004.35
2024-01-22 17:38:00,SystemResetWarning,0824.8,5.00,000.00,022.3,021.8,000.0,030.5,023.9,17.0,0003.2,0008.95,0004.53,0004.32
2024-01-22 17:39:00,SystemResetWarning,0824.8,5.00,000.00,022.4,021.8,000.0,030.5,023.9,17.0,0003.0,0009.02,0004.54,0004.30
2024-01-22 17:40:00,SystemResetWarning,0824.8,5.00,000.00,022.4,021.8,000.0,030.5,023.9,16.8,0003.0,0008.99,0004.53,0004.29
2024-01-22 17:41:00,SystemResetWarning,0824.8,5.00,000.00,022.4,021.8,000.0,030.5,023.9,16.7,0003.2,0008.93,0004.52,0004.28
2024-01-22 17:42:00,SystemResetWarning,0824.9,5.00,000.00,022.4,021.9,000.0,030.5,024.0,16.9,0003.3,0008.96,0004.53,0004.29
2024-01-22 17:43:00,SystemResetWarning,0824.8,5.00,000.00,022.4,021.9,000.0,030.6,024.0,16.7,0003.3,0008.83,0004.54,0004.29
2024-01-22 17:44:00,SystemResetWarning,0824.8,5.00,000.00,022.4,021.9,000.0,030.6,024.0,16.6,0003.6,0008.06,0004.56,0004.29
2024-01-22 17:45:00,SystemResetWarning,0824.8,5.00,000.00,022.5,021.9,000.0,030.6,024.0,16.6,0003.6,0007.80,0004.56,0004.30
2024-01-22 17:46:00,SystemResetWarning,0824.8,4.99,000.00,022.5,021.9,000.0,030.6,024.1,16.8,0003.8,0007.76,0004.54,0004.31
2024-01-22 17:47:00,SystemResetWarning,0824.7,5.00,000.00,022.5,021.9,000.0,030.6,024.1,16.8,0004.0,0007.62,0004.51,0004.29
2024-01-22 17:48:00,SystemResetWarning,0824.8,5.01,000.00,022.5,022.0,000.0,030.7,024.1,16.7,0004.0,0007.60,0004.51,0004.29
2024-01-22 17:49:00,SystemResetWarning,0824.7,5.00,000.00,022.6,022.0,000.0,030.7,024.1,16.7,0004.4,0007.59,0004.50,0004.28
2024-01-22 17:50:00,SystemResetWarning,0824.7,5.00,000.00,022.6,022.0,000.0,030.7,024.1,16.3,0004.8,0007.51,0004.47,0004.27
2024-01-22 17:51:00,SystemResetWarning,0824.8,5.00,000.00,022.6,022.0,000.0,030.7,024.1,16.3,0004.7,0007.48,0004.44,0004.26
2024-01-22 17:52:00,SystemResetWarning,0824.7,5.00,000.00,022.6,022.0,000.0,030.7,024.1,16.3,0004.3,0007.47,0004.41,0004.23
2024-01-22 17:53:00,SystemResetWarning,0824.8,5.00,000.00,022.6,022.0,000.0,030.8,024.2,16.5,0004.2,0007.48,0004.40,0004.20
2024-01-22 17:54:00,SystemResetWarning,0824.8,5.00,000.00,022.6,022.0,000.0,030.8,024.2,16.1,0004.4,0007.38,0004.37,0004.19
2024-01-22 17:55:00,SystemResetWarning,0824.8,5.00,000.00,022.7,022.1,000.0,030.8,024.2,15.9,0004.5,0007.14,0004.33,0004.17
2024-01-22 17:56:00,SystemResetWarning,0824.8,5.00,000.00,022.7,022.1,000.0,030.8,024.2,16.0,0004.4,0007.18,0004.33,0004.17
2024-01-22 17:57:00,SystemResetWarning,0824.7,5.00,000.00,022.7,022.1,000.0,030.8,024.2,16.0,0004.3,0007.28,0004.33,0004.16
2024-01-22 17:58:00,SystemResetWarning,0824.7,5.00,000.00,022.7,022.1,000.0,030.8,024.3,15.9,0004.3,0007.35,0004.34,0004.17
2024-01-22 17:59:00,SystemResetWarning,0824.7,5.00,000.00,022.7,022.1,000.0,030.9,024.3,15.6,0004.3,0007.38,0004.35,0004.18
